Starlink 3542

operational
NORAD ID: 51852 Int'l Des: 2022-022 Owner: SPXS Country: US Constellation: starlink
LEOCIRCULAR

Starlink 3542について

説明を読み込み中...

リアルタイム位置

3D地球を読み込み中...

次回通過

高度履歴

Altitude vs Time

uPlot chart will show altitude changes over time

軌道要素

1 51852U 22022A 25350.32395354 .00001252 00000-0 96705-4 0 9999
2 51852 53.2181 33.3644 0001290 89.3236 270.7904 15.08843749209176
Epoch: Dec 16, 2025 • Age: 20 hours

現在のステータス

高度 539.8 km
速度 7.60 km/s
衛星直下点 20.39°N, 54.61°E
打ち上げ日 Mar 3, 2022
運用期間 3.7 years
タイプ internet

技術仕様

分類 Payload
質量 297.00 kg
乾燥質量 275.00 kg
総質量 297.00 kg
長さ 0.20 m
直径 2.80 m
スパン 9.00 m
形状 Box + pan
製造者 SPXS
バスタイプ Starlink
フェーズステータス In Orbit
所有者/国 SPXS/US

大規模コンステレーション

Loading constellations...